Location: Goettingen
(51.5300°N, 9.9433°E)
Time: 13:11:19
(UTC+01:00)

ISS - Pass Details

Date: 24 November 2023
Orbit: 416 x 417 km, 51.6° (Epoch: 02 December)

Event Time Altitude Azimuth Distance (km) Brightness Sun altitude
Rises 17:25:52 0° 246° (WSW) 2,355 2.4 -9.9°
Reaches altitude 10° 17:27:58 10° 243° (WSW) 1,494 0.6 -10.2°
Maximum altitude 17:31:17 62° 162° (SSE) 474 -3.5 -10.7°
Enters shadow 17:33:44 17° 84° (E) 1,148 -2.2 -11.0°
